{"data":{"norad_id":68949,"intl_designator":"2026-098AG","name":"KUIPER-00455","alt_names":[],"object_type":"PAYLOAD","status":"ACTIVE","operator":null,"country":"US","launch_date":"2026-04-30","launch_site_code":"FRGUI","launch_vehicle":null,"mission":null,"orbit_class":"UNKNOWN","rcs_meters":null,"size_class":null,"mass_kg":null,"dimensions":null,"purposes":[],"wikipedia_slug":null,"has_3d_model":false,"image_url":null,"decayed_at":null,"tle_current":{"epoch":"2026-05-25T02:45:35.706240Z","epoch_age_seconds":68317,"freshness":"FRESH","line1":"1 68949U 26098AG  26145.11499660  .00021143  00000+0  72889-3 0  9992","line2":"2 68949  51.8734 179.6009 0020620  73.9248 286.4004 15.29761906  3790","mean_motion":15.29761906,"eccentricity":0.002062,"inclination_deg":51.8734,"raan_deg":179.6009,"arg_perigee_deg":73.9248,"mean_anomaly_deg":286.4004,"bstar":0.00072889,"rev_number":379,"period_min":94.132295643659,"perigee_km":462.38914144724,"apogee_km":490.6577611484,"semimajor_km":6854.6604512978,"source":"CELESTRAK","updated_at":"2026-05-25T13:38:08.799055Z"}}}